Retour au catalogue

OPS 4682 DEB

ActifPO
NORAD 59150·DEBRIS·🇺🇸 United States

Lancé Apr 3, 1965 depuis Vandenberg Space Force Base

Loading…

Prochains Passages (prochaines 24 heures)

TLE

FraisSource: Space-Track

Époque: Sep 13, 2026, 17:46 UTC

1 59150U 65027HS  26256.74048232  .00000290  00000-0  95293-3 0  9993
2 59150  90.2529   6.2017 0029543 126.7265 233.6576 12.98920374515500

Suivez OPS 4682 DEB en temps réel avec AllMySat

Download on the App Store